Weather History for Kahului, HI

Change the Weather History Date:

Wednesday, June 27, 2012

  Actual Average Record
Temperature  
Mean Temperature 77 °F 79 °F  
Max Temperature 83 °F 87 °F 93 °F (1981)
Min Temperature 70 °F 70 °F 61 °F (1951)
Degree Days  
Heating Degree Days 0 0  
Month to date heating degree days 0 0  
Since 1 June heating degree days 0 0  
Since 1 July heating degree days 0 0  
Cooling Degree Days 12 13  
Month to date cooling degree days 335 345  
Year to date cooling degree days 1660 1604  
Since 1 June cooling degree days 335 345  
Growing Degree Days 26 (Base 50)    
Moisture  
Dew Point 63 °F    
Average Humidity 60    
Maximum Humidity 73    
Minimum Humidity 47    
Precipitation  
Precipitation T in 0.00 in 0.21 in (1958)
Month to date precipitation 0.35 0.17  
Year to date precipitation 3.97 9.67  
Snow  
Snow 0.00 in - - ()
Month to date snowfall 0.0  
Since 1 June snowfall 0.0  
Since 1 July snowfall 0.0  
Snow Depth 0.00 in    
Sea Level Pressure  
Sea Level Pressure 30.07 in    
Wind  
Wind Speed 16 mph (NE)    
Max Wind Speed 33 mph    
Max Gust Speed 39 mph    
Visibility 10 miles    
Events Rain    
T = Trace of Precipitation, MM = Missing Value Source: NWS Daily Summary

Daily Weather History Graph

Daily Weather History Graph

Search for Another Location

Airport:

Trip Planner

Search our weather history database for the weather conditions in past years. The results will help you decide how hot, cold, wet, or windy it might be!

Date:

Astronomy

Jun. 27, 2012 Rise Set
Actual Time 5:47 AM HST 7:10 PM HST
Civil Twilight 5:22 AM HST 7:35 PM HST
Nautical Twilight 4:52 AM HST 8:04 PM HST
Astronomical Twilight 4:22 AM HST 8:35 PM HST
Moon 1:15 PM HST (6/27) 12:19 AM HST (6/27)
Length of Visible Light 14h 13m
Length of Day
13h 23m
First Quarter, 59% of the Moon is Illuminated
Jun 27
First Quarter
Jul 3
Full
Jul 10
Last Quarter
Jul 18
New
Jul 25
First Quarter

Hourly Weather History & Observations

Time (HST) Temp. Heat Index Dew Point Humidity Pressure Visibility Wind Dir Wind Speed Gust Speed Precip Events Conditions
12:54 AM 73.0 °F - 61.0 °F 66% 30.10 in 10.0 mi NE 13.8 mph - N/A   Scattered Clouds
1:54 AM 73.0 °F - 62.1 °F 68% 30.08 in 10.0 mi NE 13.8 mph - N/A   Mostly Cloudy
2:54 AM 72.0 °F - 61.0 °F 68% 30.07 in 10.0 mi NE 13.8 mph 24.2 mph 0.00 in Rain Light Rain
3:54 AM 71.1 °F - 61.0 °F 70% 30.07 in 10.0 mi NE 8.1 mph - 0.00 in   Mostly Cloudy
4:54 AM 72.0 °F - 62.1 °F 71% 30.07 in 10.0 mi ENE 9.2 mph - N/A   Partly Cloudy
5:54 AM 72.0 °F - 61.0 °F 68% 30.07 in 10.0 mi NE 9.2 mph - N/A   Partly Cloudy
6:54 AM 73.9 °F - 62.1 °F 66% 30.09 in 10.0 mi ENE 12.7 mph - N/A   Partly Cloudy
7:54 AM 75.9 °F - 63.0 °F 64% 30.10 in 10.0 mi NE 12.7 mph - N/A   Scattered Clouds
8:54 AM 75.9 °F - 63.0 °F 64% 30.11 in 10.0 mi East 10.4 mph 19.6 mph 0.00 in   Scattered Clouds
9:54 AM 80.1 °F 81.2 °F 62.1 °F 54% 30.11 in 10.0 mi ENE 20.7 mph 26.5 mph 0.00 in   Scattered Clouds
10:54 AM 80.1 °F 81.1 °F 61.0 °F 52% 30.10 in 10.0 mi ENE 19.6 mph 26.5 mph N/A   Scattered Clouds
11:54 AM 82.9 °F 83.3 °F 61.0 °F 47% 30.08 in 10.0 mi NE 21.9 mph - N/A   Scattered Clouds
12:54 PM 80.1 °F 81.2 °F 62.1 °F 54% 30.06 in 10.0 mi ENE 20.7 mph 34.5 mph N/A   Scattered Clouds
1:54 PM 78.1 °F - 64.0 °F 62% 30.05 in 10.0 mi NE 25.3 mph 33.4 mph N/A   Scattered Clouds
2:54 PM 75.0 °F - 64.0 °F 69% 30.06 in 10.0 mi NE 26.5 mph 34.5 mph 0.00 in Rain Light Rain
3:54 PM 75.9 °F - 64.0 °F 67% 30.04 in 10.0 mi ENE 17.3 mph 28.8 mph 0.00 in Rain Light Rain
4:54 PM 75.9 °F - 66.0 °F 71% 30.04 in 10.0 mi NE 13.8 mph - 0.00 in   Mostly Cloudy
5:54 PM 73.9 °F - 64.9 °F 73% 30.04 in 10.0 mi NE 11.5 mph - 0.00 in   Mostly Cloudy
6:54 PM 73.0 °F - 63.0 °F 71% 30.05 in 10.0 mi ENE 9.2 mph - 0.00 in   Mostly Cloudy
7:54 PM 73.0 °F - 62.1 °F 68% 30.06 in 10.0 mi ENE 11.5 mph 20.7 mph N/A   Mostly Cloudy
8:54 PM 72.0 °F - 59.0 °F 64% 30.07 in 10.0 mi North 6.9 mph - N/A   Mostly Cloudy
9:54 PM 72.0 °F - 63.0 °F 73% 30.08 in 10.0 mi NE 9.2 mph - N/A   Scattered Clouds
10:54 PM 71.1 °F - 64.0 °F 78% 30.08 in 10.0 mi ENE 16.1 mph - 0.01 in Rain Rain
11:54 PM 71.1 °F - 64.9 °F 81% 30.07 in 10.0 mi NE 13.8 mph - 0.03 in Rain Light Rain